Time,TemperatureF,DewpointF,PressureIn,WindDirection,WindDirectionDegrees,WindSpeedMPH,WindSpeedGustMPH,Humidity,HourlyPrecipIn,Conditions,Clouds,dailyrainin,SoftwareType,DateUTC
2013-03-01 00:06:00,23.9,14.2,30.18,SSE,150,0.0,0.0,66,0.00,,,0.00,Wunderground v.1.15,2013-03-01 06:06:00,
2013-03-01 00:16:00,23.9,14.2,30.18,ESE,103,0.0,0.0,66,0.00,,,0.00,Wunderground v.1.15,2013-03-01 06:16:00,
2013-03-01 00:25:00,23.9,14.2,30.18,West,261,0.0,0.0,66,0.00,,,0.00,Wunderground v.1.15,2013-03-01 06:25:00,
2013-03-01 00:30:00,23.9,14.2,30.18,WSW,254,0.0,0.0,66,0.00,,,0.00,Wunderground v.1.15,2013-03-01 06:30:00,
2013-03-01 00:35:00,23.9,14.2,30.18,East,91,0.0,0.0,66,0.00,,,0.00,Wunderground v.1.15,2013-03-01 06:35:00,
2013-03-01 00:40:00,23.8,14.1,30.18,SSE,150,0.0,0.0,66,0.00,,,0.00,Wunderground v.1.15,2013-03-01 06:40:00,
2013-03-01 00:46:00,23.8,14.4,30.18,West,262,0.0,0.0,67,0.00,,,0.00,Wunderground v.1.15,2013-03-01 06:46:00,
2013-03-01 00:55:00,23.8,14.1,30.18,SW,231,0.0,0.0,66,0.00,,,0.00,Wunderground v.1.15,2013-03-01 06:55:00,
2013-03-01 01:00:00,23.6,13.9,30.18,SW,217,0.0,0.0,66,0.00,,,0.00,Wunderground v.1.15,2013-03-01 07:00:00,
2013-03-01 01:06:00,23.6,13.9,30.18,WNW,289,0.0,0.0,66,0.00,,,0.00,Wunderground v.1.15,2013-03-01 07:06:00,
2013-03-01 01:15:00,23.5,13.8,30.19,ENE,60,0.0,0.0,66,0.00,,,0.00,Wunderground v.1.15,2013-03-01 07:15:00,
2013-03-01 01:21:00,23.5,13.8,30.19,WSW,251,0.0,0.0,66,0.00,,,0.00,Wunderground v.1.15,2013-03-01 07:21:00,
2013-03-01 01:31:00,23.3,13.3,30.19,ENE,75,0.0,0.0,65,0.00,,,0.00,Wunderground v.1.15,2013-03-01 07:31:00,
2013-03-01 01:40:00,23.2,13.2,30.19,ESE,103,0.0,0.0,65,0.00,,,0.00,Wunderground v.1.15,2013-03-01 07:40:00,
2013-03-01 01:45:00,23.2,13.5,30.19,WSW,240,0.0,0.0,66,0.00,,,0.00,Wunderground v.1.15,2013-03-01 07:45:00,
2013-03-01 01:50:00,23.2,13.5,30.19,East,79,0.0,0.0,66,0.00,,,0.00,Wunderground v.1.15,2013-03-01 07:50:00,
2013-03-01 01:56:00,23.2,13.2,30.19,West,268,0.0,0.0,65,0.00,,,0.00,Wunderground v.1.15,2013-03-01 07:56:00,
2013-03-01 02:06:00,23.0,13.0,30.20,SW,228,0.0,0.0,65,0.00,,,0.00,Wunderground v.1.15,2013-03-01 08:06:00,
2013-03-01 02:16:00,22.9,12.9,30.20,SE,134,0.0,0.0,65,0.00,,,0.00,Wunderground v.1.15,2013-03-01 08:16:00,
2013-03-01 02:25:00,22.9,12.9,30.20,SE,134,0.0,0.0,65,0.00,,,0.00,Wunderground v.1.15,2013-03-01 08:25:00,
2013-03-01 02:30:00,22.9,12.9,30.20,SSE,159,0.0,0.0,65,0.00,,,0.00,Wunderground v.1.15,2013-03-01 08:30:00,
2013-03-01 02:35:00,22.9,12.9,30.20,WSW,238,0.0,0.0,65,0.00,,,0.00,Wunderground v.1.15,2013-03-01 08:35:00,
2013-03-01 02:40:00,22.9,13.2,30.20,West,261,0.0,0.0,66,0.00,,,0.00,Wunderground v.1.15,2013-03-01 08:40:00,
2013-03-01 02:50:00,22.9,13.2,30.20,South,169,0.0,0.0,66,0.00,,,0.00,Wunderground v.1.15,2013-03-01 08:50:00,
2013-03-01 02:55:00,22.9,13.2,30.20,SE,129,0.0,0.0,66,0.00,,,0.00,Wunderground v.1.15,2013-03-01 08:55:00,
2013-03-01 03:00:00,22.9,13.2,30.20,South,176,0.0,0.0,66,0.00,,,0.00,Wunderground v.1.15,2013-03-01 09:00:00,
2013-03-01 03:06:00,22.9,13.2,30.20,ENE,65,0.0,0.0,66,0.00,,,0.00,Wunderground v.1.15,2013-03-01 09:06:00,
2013-03-01 03:15:00,23.0,13.3,30.20,East,93,0.0,0.0,66,0.00,,,0.00,Wunderground v.1.15,2013-03-01 09:15:00,
2013-03-01 03:20:00,23.0,13.3,30.20,SW,231,0.0,0.0,66,0.00,,,0.00,Wunderground v.1.15,2013-03-01 09:20:00,
2013-03-01 03:26:00,23.0,13.3,30.20,SE,133,0.0,0.0,66,0.00,,,0.00,Wunderground v.1.15,2013-03-01 09:26:00,
2013-03-01 03:35:00,23.0,13.3,30.20,West,271,0.0,0.0,66,0.00,,,0.00,Wunderground v.1.15,2013-03-01 09:35:00,
2013-03-01 03:40:00,23.0,13.7,30.20,East,94,0.0,0.0,67,0.00,,,0.00,Wunderground v.1.15,2013-03-01 09:40:00,
2013-03-01 03:45:00,23.0,13.7,30.21,East,89,0.0,0.0,67,0.00,,,0.00,Wunderground v.1.15,2013-03-01 09:45:00,
2013-03-01 03:55:00,23.0,13.7,30.21,SE,143,0.0,0.0,67,0.00,,,0.00,Wunderground v.1.15,2013-03-01 09:55:00,
2013-03-01 04:00:00,23.0,13.7,30.21,SE,126,0.0,0.0,67,0.00,,,0.00,Wunderground v.1.15,2013-03-01 10:00:00,
2013-03-01 04:06:00,23.0,13.7,30.21,East,81,0.0,0.0,67,0.00,,,0.00,Wunderground v.1.15,2013-03-01 10:06:00,
2013-03-01 04:15:00,23.0,13.3,30.21,NE,54,0.0,0.0,66,0.00,,,0.00,Wunderground v.1.15,2013-03-01 10:15:00,
2013-03-01 04:20:00,23.0,13.3,30.21,South,169,0.0,0.0,66,0.00,,,0.00,Wunderground v.1.15,2013-03-01 10:20:00,
2013-03-01 04:25:00,23.0,13.3,30.21,North,1,0.0,0.0,66,0.00,,,0.00,Wunderground v.1.15,2013-03-01 10:25:00,
2013-03-01 04:35:00,23.0,13.3,30.21,North,1,0.0,0.0,66,0.00,,,0.00,Wunderground v.1.15,2013-03-01 10:35:00,
2013-03-01 04:45:00,23.0,13.3,30.22,West,279,0.0,0.0,66,0.00,,,0.00,Wunderground v.1.15,2013-03-01 10:45:00,
2013-03-01 04:50:00,23.0,13.3,30.22,NNW,346,0.0,0.0,66,0.00,,,0.00,Wunderground v.1.15,2013-03-01 10:50:00,
2013-03-01 04:55:00,23.0,13.3,30.22,ENE,60,0.0,0.0,66,0.00,,,0.00,Wunderground v.1.15,2013-03-01 10:55:00,
2013-03-01 05:00:00,23.0,13.3,30.23,ESE,110,0.0,0.0,66,0.00,,,0.00,Wunderground v.1.15,2013-03-01 11:00:00,
2013-03-01 05:06:00,23.0,13.3,30.23,ESE,108,0.0,0.0,66,0.00,,,0.00,Wunderground v.1.15,2013-03-01 11:06:00,
2013-03-01 05:15:00,23.0,13.0,30.23,ENE,58,0.0,0.0,65,0.00,,,0.00,Wunderground v.1.15,2013-03-01 11:15:00,
2013-03-01 05:21:00,23.0,13.0,30.23,ENE,63,0.0,0.0,65,0.00,,,0.00,Wunderground v.1.15,2013-03-01 11:21:00,
2013-03-01 05:26:00,23.0,13.0,30.23,South,176,0.0,0.0,65,0.00,,,0.00,Wunderground v.1.15,2013-03-01 11:26:00,
2013-03-01 05:35:00,23.0,13.0,30.23,ENE,66,0.0,0.0,65,0.00,,,0.00,Wunderground v.1.15,2013-03-01 11:35:00,
2013-03-01 05:40:00,23.2,12.8,30.23,ENE,70,0.0,0.0,64,0.00,,,0.00,Wunderground v.1.15,2013-03-01 11:40:00,
2013-03-01 05:45:00,23.2,12.8,30.24,WSW,255,0.0,0.0,64,0.00,,,0.00,Wunderground v.1.15,2013-03-01 11:45:00,
2013-03-01 05:50:00,23.2,12.8,30.24,ENE,67,0.0,0.0,64,0.00,,,0.00,Wunderground v.1.15,2013-03-01 11:50:00,
2013-03-01 06:01:00,23.2,12.8,30.24,South,189,0.0,0.0,64,0.00,,,0.00,Wunderground v.1.15,2013-03-01 12:01:00,
2013-03-01 06:06:00,23.2,12.8,30.24,ESE,120,0.0,0.0,64,0.00,,,0.00,Wunderground v.1.15,2013-03-01 12:06:00,
2013-03-01 06:15:00,23.2,12.8,30.25,West,266,0.0,0.0,64,0.00,,,0.00,Wunderground v.1.15,2013-03-01 12:15:00,
2013-03-01 06:25:00,23.2,13.2,30.25,ENE,74,0.0,0.0,65,0.00,,,0.00,Wunderground v.1.15,2013-03-01 12:25:00,
2013-03-01 06:30:00,23.2,13.2,30.25,East,86,0.0,0.0,65,0.00,,,0.00,Wunderground v.1.15,2013-03-01 12:30:00,
2013-03-01 06:36:00,23.2,13.2,30.25,ENE,70,0.0,0.0,65,0.00,,,0.00,Wunderground v.1.15,2013-03-01 12:36:00,
2013-03-01 06:41:00,23.2,13.2,30.25,NE,50,0.0,0.0,65,0.00,,,0.00,Wunderground v.1.15,2013-03-01 12:41:00,
2013-03-01 06:50:00,23.3,13.3,30.25,NNW,345,0.0,0.0,65,0.00,,,0.00,Wunderground v.1.15,2013-03-01 12:50:00,
2013-03-01 06:55:00,23.3,13.6,30.25,NW,318,0.0,0.0,66,0.00,,,0.00,Wunderground v.1.15,2013-03-01 12:55:00,
2013-03-01 07:00:00,23.3,13.6,30.25,SSW,203,0.0,0.0,66,0.00,,,0.00,Wunderground v.1.15,2013-03-01 13:00:00,
2013-03-01 07:06:00,23.5,13.8,30.25,SW,236,0.0,0.0,66,0.00,,,0.00,Wunderground v.1.15,2013-03-01 13:06:00,
2013-03-01 07:15:00,23.5,13.8,30.26,SW,231,0.0,0.0,66,0.00,,,0.00,Wunderground v.1.15,2013-03-01 13:15:00,
2013-03-01 07:20:00,23.5,13.8,30.26,WSW,252,0.0,0.0,66,0.00,,,0.00,Wunderground v.1.15,2013-03-01 13:20:00,
2013-03-01 07:25:00,23.5,13.8,30.26,WSW,251,0.0,0.0,66,0.00,,,0.00,Wunderground v.1.15,2013-03-01 13:25:00,
2013-03-01 07:30:00,23.5,13.8,30.26,WSW,252,0.0,0.0,66,0.00,,,0.00,Wunderground v.1.15,2013-03-01 13:30:00,
2013-03-01 07:35:00,23.5,13.8,30.26,South,176,0.0,0.0,66,0.00,,,0.00,Wunderground v.1.15,2013-03-01 13:35:00,
2013-03-01 07:40:00,23.6,13.9,30.26,WNW,282,0.0,0.0,66,0.00,,,0.00,Wunderground v.1.15,2013-03-01 13:40:00,
2013-03-01 07:45:00,23.6,13.9,30.26,West,281,0.0,0.0,66,0.00,,,0.00,Wunderground v.1.15,2013-03-01 13:45:00,
2013-03-01 07:51:00,23.6,13.9,30.26,SE,124,0.0,0.0,66,0.00,,,0.00,Wunderground v.1.15,2013-03-01 13:51:00,
2013-03-01 08:00:00,23.6,13.9,30.27,NE,38,0.0,0.0,66,0.00,,,0.00,Wunderground v.1.15,2013-03-01 14:00:00,
2013-03-01 08:06:00,23.6,13.9,30.27,West,271,0.0,0.0,66,0.00,,,0.00,Wunderground v.1.15,2013-03-01 14:06:00,
2013-03-01 08:15:00,23.8,13.7,30.27,SSW,212,0.0,0.0,65,0.00,,,0.00,Wunderground v.1.15,2013-03-01 14:15:00,
2013-03-01 08:20:00,23.9,13.8,30.27,West,262,0.0,0.0,65,0.00,,,0.00,Wunderground v.1.15,2013-03-01 14:20:00,
2013-03-01 08:25:00,24.1,14.0,30.27,NE,52,0.0,0.0,65,0.00,,,0.00,Wunderground v.1.15,2013-03-01 14:25:00,
2013-03-01 08:31:00,24.2,14.1,30.27,SW,225,0.0,0.0,65,0.00,,,0.00,Wunderground v.1.15,2013-03-01 14:31:00,
2013-03-01 08:40:00,24.5,14.1,30.27,ENE,72,0.0,0.0,64,0.00,,,0.00,Wunderground v.1.15,2013-03-01 14:40:00,
2013-03-01 08:45:00,24.7,14.2,30.27,SW,231,0.0,0.0,64,0.00,,,0.00,Wunderground v.1.15,2013-03-01 14:45:00,
2013-03-01 08:50:00,24.8,14.3,30.27,WNW,286,0.0,0.0,64,0.00,,,0.00,Wunderground v.1.15,2013-03-01 14:50:00,
2013-03-01 08:55:00,25.0,14.5,30.27,ESE,104,0.0,0.0,64,0.00,,,0.00,Wunderground v.1.15,2013-03-01 14:55:00,
2013-03-01 09:00:00,25.1,14.6,30.27,ESE,111,0.0,0.0,64,0.00,,,0.00,Wunderground v.1.15,2013-03-01 15:00:00,
2013-03-01 09:06:00,25.3,14.8,30.27,WSW,240,0.0,0.0,64,0.00,,,0.00,Wunderground v.1.15,2013-03-01 15:06:00,
2013-03-01 09:15:00,25.4,14.9,30.27,SSW,201,0.0,0.0,64,0.00,,,0.00,Wunderground v.1.15,2013-03-01 15:15:00,
2013-03-01 09:25:00,25.6,15.1,30.27,SSW,208,0.0,0.0,64,0.00,,,0.00,Wunderground v.1.15,2013-03-01 15:25:00,
2013-03-01 09:30:00,25.8,15.3,30.27,SW,231,0.0,0.0,64,0.00,,,0.00,Wunderground v.1.15,2013-03-01 15:30:00,
2013-03-01 09:35:00,26.0,15.1,30.27,SW,229,0.0,0.0,63,0.00,,,0.00,Wunderground v.1.15,2013-03-01 15:35:00,
2013-03-01 09:45:00,26.4,15.1,30.28,South,172,0.0,0.0,62,0.00,,,0.00,Wunderground v.1.15,2013-03-01 15:45:00,
2013-03-01 09:51:00,26.4,15.5,30.28,SSW,213,0.0,0.0,63,0.00,,,0.00,Wunderground v.1.15,2013-03-01 15:51:00,
2013-03-01 10:00:00,26.3,15.8,30.28,WSW,258,0.0,0.0,64,0.00,,,0.00,Wunderground v.1.15,2013-03-01 16:00:00,
2013-03-01 10:06:00,26.3,15.8,30.28,SW,229,0.0,0.0,64,0.00,,,0.00,Wunderground v.1.15,2013-03-01 16:06:00,
2013-03-01 10:15:00,26.6,15.7,30.28,SW,229,0.0,0.0,63,0.00,,,0.00,Wunderground v.1.15,2013-03-01 16:15:00,
2013-03-01 10:25:00,26.7,16.1,30.28,ENE,77,0.0,0.0,64,0.00,,,0.00,Wunderground v.1.15,2013-03-01 16:25:00,
2013-03-01 10:30:00,26.6,16.1,30.28,SSW,203,0.0,0.0,64,0.00,,,0.00,Wunderground v.1.15,2013-03-01 16:30:00,
2013-03-01 10:35:00,26.6,16.1,30.28,SW,219,0.0,0.0,64,0.00,,,0.00,Wunderground v.1.15,2013-03-01 16:35:00,
2013-03-01 10:40:00,26.4,15.9,30.28,SSW,198,0.0,0.0,64,0.00,,,0.00,Wunderground v.1.15,2013-03-01 16:40:00,
2013-03-01 10:46:00,26.6,15.7,30.28,West,259,0.0,0.0,63,0.00,,,0.00,Wunderground v.1.15,2013-03-01 16:46:00,
2013-03-01 10:51:00,26.6,16.1,30.28,SW,230,0.0,0.0,64,0.00,,,0.00,Wunderground v.1.15,2013-03-01 16:51:00,
2013-03-01 11:00:00,26.7,15.8,30.28,NE,37,0.0,0.0,63,0.00,,,0.00,Wunderground v.1.15,2013-03-01 17:00:00,
2013-03-01 11:06:00,27.0,16.4,30.28,WNW,290,0.0,0.0,64,0.00,,,0.00,Wunderground v.1.15,2013-03-01 17:06:00,
2013-03-01 11:15:00,26.7,15.8,30.28,WNW,300,0.0,0.0,63,0.00,,,0.00,Wunderground v.1.15,2013-03-01 17:15:00,
2013-03-01 11:21:00,26.7,16.1,30.28,West,262,0.0,0.0,64,0.00,,,0.00,Wunderground v.1.15,2013-03-01 17:21:00,
2013-03-01 11:26:00,26.7,15.8,30.28,WNW,303,0.0,0.0,63,0.00,,,0.00,Wunderground v.1.15,2013-03-01 17:26:00,
2013-03-01 11:35:00,26.7,15.8,30.29,SSW,203,0.0,0.0,63,0.00,,,0.00,Wunderground v.1.15,2013-03-01 17:35:00,
2013-03-01 11:40:00,26.7,15.8,30.29,SW,234,0.0,0.0,63,0.00,,,0.00,Wunderground v.1.15,2013-03-01 17:40:00,
2013-03-01 11:45:00,27.3,16.7,30.29,WSW,246,0.0,0.0,64,0.00,,,0.00,Wunderground v.1.15,2013-03-01 17:45:00,
2013-03-01 11:50:00,27.3,16.7,30.29,WSW,247,0.0,0.0,64,0.00,,,0.00,Wunderground v.1.15,2013-03-01 17:50:00,
2013-03-01 11:55:00,27.5,16.2,30.29,WNW,303,0.0,0.0,62,0.00,,,0.00,Wunderground v.1.15,2013-03-01 17:55:00,
2013-03-01 12:01:00,27.9,16.2,30.28,WNW,293,0.0,0.0,61,0.00,,,0.00,Wunderground v.1.15,2013-03-01 18:01:00,
2013-03-01 12:06:00,28.1,16.7,30.28,West,271,0.0,0.0,62,0.00,,,0.00,Wunderground v.1.15,2013-03-01 18:06:00,
2013-03-01 12:15:00,28.1,16.0,30.28,WSW,250,0.0,0.0,60,0.00,,,0.00,Wunderground v.1.15,2013-03-01 18:15:00,
2013-03-01 12:21:00,27.5,15.8,30.28,East,97,0.0,0.0,61,0.00,,,0.00,Wunderground v.1.15,2013-03-01 18:21:00,
2013-03-01 12:26:00,27.8,16.1,30.28,WSW,241,0.0,0.0,61,0.00,,,0.00,Wunderground v.1.15,2013-03-01 18:26:00,
2013-03-01 12:35:00,27.8,15.7,30.28,West,271,0.0,0.0,60,0.00,,,0.00,Wunderground v.1.15,2013-03-01 18:35:00,
2013-03-01 12:40:00,28.4,17.0,30.28,West,271,0.0,0.0,62,0.00,,,0.00,Wunderground v.1.15,2013-03-01 18:40:00,
2013-03-01 12:45:00,28.8,17.0,30.28,NW,311,0.0,0.0,61,0.00,,,0.00,Wunderground v.1.15,2013-03-01 18:45:00,
2013-03-01 12:50:00,29.0,16.4,30.28,North,4,0.0,0.0,59,0.00,,,0.00,Wunderground v.1.15,2013-03-01 18:50:00,
2013-03-01 13:00:00,28.7,16.9,30.27,SW,232,0.0,0.0,61,0.00,,,0.00,Wunderground v.1.15,2013-03-01 19:00:00,
2013-03-01 13:06:00,28.8,16.6,30.27,SW,233,0.0,0.0,60,0.00,,,0.00,Wunderground v.1.15,2013-03-01 19:06:00,
2013-03-01 13:15:00,28.5,16.4,30.27,WSW,257,0.0,0.0,60,0.00,,,0.00,Wunderground v.1.15,2013-03-01 19:15:00,
2013-03-01 13:21:00,28.5,16.4,30.27,SW,221,0.0,0.0,60,0.00,,,0.00,Wunderground v.1.15,2013-03-01 19:21:00,
2013-03-01 13:26:00,28.7,16.6,30.27,WSW,244,0.0,0.0,60,0.00,,,0.00,Wunderground v.1.15,2013-03-01 19:26:00,
2013-03-01 13:35:00,28.7,16.2,30.27,ENE,78,0.0,0.0,59,0.00,,,0.00,Wunderground v.1.15,2013-03-01 19:35:00,
2013-03-01 13:41:00,28.5,16.4,30.27,SSW,204,0.0,0.0,60,0.00,,,0.00,Wunderground v.1.15,2013-03-01 19:41:00,
2013-03-01 13:46:00,29.0,16.8,30.27,ENE,60,0.0,0.0,60,0.00,,,0.00,Wunderground v.1.15,2013-03-01 19:46:00,
2013-03-01 13:51:00,29.1,16.5,30.27,East,100,0.0,0.0,59,0.00,,,0.00,Wunderground v.1.15,2013-03-01 19:51:00,
2013-03-01 14:00:00,29.5,16.9,30.26,ESE,106,0.0,0.0,59,0.00,,,0.00,Wunderground v.1.15,2013-03-01 20:00:00,
2013-03-01 14:06:00,29.5,16.1,30.26,SE,136,0.0,0.0,57,0.00,,,0.00,Wunderground v.1.15,2013-03-01 20:06:00,
2013-03-01 14:15:00,29.0,16.4,30.26,SE,127,0.0,0.0,59,0.00,,,0.00,Wunderground v.1.15,2013-03-01 20:15:00,
2013-03-01 14:20:00,29.3,16.3,30.26,East,92,0.0,0.0,58,0.00,,,0.00,Wunderground v.1.15,2013-03-01 20:20:00,
2013-03-01 14:25:00,29.5,16.1,30.26,WSW,257,0.0,0.0,57,0.00,,,0.00,Wunderground v.1.15,2013-03-01 20:25:00,
2013-03-01 14:30:00,29.3,15.9,30.26,WSW,247,0.0,0.0,57,0.00,,,0.00,Wunderground v.1.15,2013-03-01 20:30:00,
2013-03-01 14:35:00,29.1,15.7,30.26,West,262,0.0,0.0,57,0.00,,,0.00,Wunderground v.1.15,2013-03-01 20:35:00,
2013-03-01 14:40:00,29.0,15.2,30.26,West,267,0.0,0.0,56,0.00,,,0.00,Wunderground v.1.15,2013-03-01 20:40:00,
2013-03-01 14:45:00,29.1,15.7,30.26,ESE,116,0.0,0.0,57,0.00,,,0.00,Wunderground v.1.15,2013-03-01 20:45:00,
2013-03-01 14:50:00,29.5,15.7,30.26,ESE,118,0.0,0.0,56,0.00,,,0.00,Wunderground v.1.15,2013-03-01 20:50:00,
2013-03-01 14:56:00,29.5,15.7,30.26,SE,131,0.0,0.0,56,0.00,,,0.00,Wunderground v.1.15,2013-03-01 20:56:00,
2013-03-01 15:01:00,29.5,15.7,30.26,WSW,240,0.0,0.0,56,0.00,,,0.00,Wunderground v.1.15,2013-03-01 21:01:00,
2013-03-01 15:06:00,29.3,15.5,30.26,WSW,251,0.0,0.0,56,0.00,,,0.00,Wunderground v.1.15,2013-03-01 21:06:00,
2013-03-01 15:15:00,29.3,15.9,30.26,West,268,0.0,0.0,57,0.00,,,0.00,Wunderground v.1.15,2013-03-01 21:15:00,
2013-03-01 15:21:00,29.1,15.3,30.26,West,265,0.0,0.0,56,0.00,,,0.00,Wunderground v.1.15,2013-03-01 21:21:00,
2013-03-01 15:26:00,29.1,15.3,30.26,SW,236,0.0,0.0,56,0.00,,,0.00,Wunderground v.1.15,2013-03-01 21:26:00,
2013-03-01 15:35:00,29.4,15.6,30.26,SW,216,0.0,0.0,56,0.00,,,0.00,Wunderground v.1.15,2013-03-01 21:35:00,
2013-03-01 15:40:00,29.4,15.6,30.26,SSW,211,0.0,0.0,56,0.00,,,0.00,Wunderground v.1.15,2013-03-01 21:40:00,
2013-03-01 15:45:00,29.4,15.6,30.26,East,84,0.0,0.0,56,0.00,,,0.00,Wunderground v.1.15,2013-03-01 21:45:00,
2013-03-01 15:50:00,29.7,15.9,30.26,SE,144,0.0,0.0,56,0.00,,,0.00,Wunderground v.1.15,2013-03-01 21:50:00,
2013-03-01 15:55:00,29.5,15.7,30.26,WSW,250,0.0,0.0,56,0.00,,,0.00,Wunderground v.1.15,2013-03-01 21:55:00,
2013-03-01 16:06:00,29.7,15.9,30.25,West,269,0.0,0.0,56,0.00,,,0.00,Wunderground v.1.15,2013-03-01 22:06:00,
2013-03-01 16:15:00,29.8,15.6,30.26,ESE,105,0.0,0.0,55,0.00,,,0.00,Wunderground v.1.15,2013-03-01 22:15:00,
2013-03-01 16:25:00,29.8,16.0,30.26,SW,226,0.0,0.0,56,0.00,,,0.00,Wunderground v.1.15,2013-03-01 22:25:00,
2013-03-01 16:35:00,29.7,15.5,30.26,SW,234,0.0,0.0,55,0.00,,,0.00,Wunderground v.1.15,2013-03-01 22:35:00,
2013-03-01 16:40:00,29.5,15.3,30.26,SW,224,0.0,0.0,55,0.00,,,0.00,Wunderground v.1.15,2013-03-01 22:40:00,
2013-03-01 16:50:00,29.3,15.5,30.26,WSW,246,0.0,0.0,56,0.00,,,0.00,Wunderground v.1.15,2013-03-01 22:50:00,
2013-03-01 17:00:00,29.1,15.3,30.26,WSW,257,0.0,0.0,56,0.00,,,0.00,Wunderground v.1.15,2013-03-01 23:00:00,
2013-03-01 17:05:00,29.1,15.3,30.26,WNW,282,0.0,0.0,56,0.00,,,0.00,Wunderground v.1.15,2013-03-01 23:05:00,
2013-03-01 17:15:00,29.0,15.2,30.26,WSW,258,0.0,0.0,56,0.00,,,0.00,Wunderground v.1.15,2013-03-01 23:15:00,
2013-03-01 17:25:00,28.8,15.1,30.26,SSW,209,0.0,0.0,56,0.00,,,0.00,Wunderground v.1.15,2013-03-01 23:25:00,
2013-03-01 17:30:00,28.7,15.0,30.27,SW,219,0.0,0.0,56,0.00,,,0.00,Wunderground v.1.15,2013-03-01 23:30:00,
2013-03-01 17:35:00,28.5,14.8,30.27,WSW,250,0.0,0.0,56,0.00,,,0.00,Wunderground v.1.15,2013-03-01 23:35:00,
2013-03-01 17:40:00,28.4,15.1,30.27,WSW,249,0.0,0.0,57,0.00,,,0.00,Wunderground v.1.15,2013-03-01 23:40:00,
2013-03-01 17:50:00,28.1,14.8,30.27,WNW,285,0.0,0.0,57,0.00,,,0.00,Wunderground v.1.15,2013-03-01 23:50:00,
2013-03-01 17:55:00,28.1,15.2,30.27,West,266,0.0,0.0,58,0.00,,,0.00,Wunderground v.1.15,2013-03-01 23:55:00,
2013-03-01 18:00:00,27.9,15.0,30.28,East,97,0.0,0.0,58,0.00,,,0.00,Wunderground v.1.15,2013-03-02 00:00:00,
2013-03-01 18:05:00,27.8,14.9,30.28,WSW,253,0.0,0.0,58,0.00,,,0.00,Wunderground v.1.15,2013-03-02 00:05:00,
2013-03-01 18:15:00,27.5,14.6,30.28,WSW,252,0.0,0.0,58,0.00,,,0.00,Wunderground v.1.15,2013-03-02 00:15:00,
2013-03-01 18:20:00,27.3,14.8,30.28,WSW,254,0.0,0.0,59,0.00,,,0.00,Wunderground v.1.15,2013-03-02 00:20:00,
2013-03-01 18:30:00,27.0,14.6,30.28,WSW,243,0.0,0.0,59,0.00,,,0.00,Wunderground v.1.15,2013-03-02 00:30:00,
2013-03-01 18:40:00,26.7,14.7,30.28,WSW,257,0.0,0.0,60,0.00,,,0.00,Wunderground v.1.15,2013-03-02 00:40:00,
2013-03-01 18:45:00,26.6,14.6,30.28,WSW,257,0.0,0.0,60,0.00,,,0.00,Wunderground v.1.15,2013-03-02 00:45:00,
2013-03-01 18:50:00,26.6,14.6,30.28,WSW,257,0.0,0.0,60,0.00,,,0.00,Wunderground v.1.15,2013-03-02 00:50:00,
2013-03-01 18:55:00,26.4,14.4,30.28,WSW,257,0.0,0.0,60,0.00,,,0.00,Wunderground v.1.15,2013-03-02 00:55:00,
2013-03-01 19:00:00,26.3,14.7,30.29,WSW,257,0.0,0.0,61,0.00,,,0.00,Wunderground v.1.15,2013-03-02 01:00:00,
2013-03-01 19:05:00,26.1,14.5,30.29,WSW,257,0.0,0.0,61,0.00,,,0.00,Wunderground v.1.15,2013-03-02 01:05:00,
2013-03-01 19:15:00,26.0,14.4,30.29,WSW,257,0.0,0.0,61,0.00,,,0.00,Wunderground v.1.15,2013-03-02 01:15:00,
2013-03-01 19:20:00,25.8,14.2,30.29,WSW,257,0.0,0.0,61,0.00,,,0.00,Wunderground v.1.15,2013-03-02 01:20:00,
2013-03-01 19:25:00,25.7,14.1,30.29,WSW,257,0.0,0.0,61,0.00,,,0.00,Wunderground v.1.15,2013-03-02 01:25:00,
2013-03-01 19:30:00,25.6,14.4,30.29,West,269,0.0,0.0,62,0.00,,,0.00,Wunderground v.1.15,2013-03-02 01:30:00,
2013-03-01 19:40:00,25.3,14.1,30.29,SW,230,0.0,0.0,62,0.00,,,0.00,Wunderground v.1.15,2013-03-02 01:40:00,
2013-03-01 19:45:00,25.3,14.5,30.30,SW,230,0.0,0.0,63,0.00,,,0.00,Wunderground v.1.15,2013-03-02 01:45:00,
2013-03-01 19:50:00,25.1,14.3,30.30,WNW,283,0.0,0.0,63,0.00,,,0.00,Wunderground v.1.15,2013-03-02 01:50:00,
2013-03-01 19:55:00,25.0,14.2,30.30,NNW,335,0.0,0.0,63,0.00,,,0.00,Wunderground v.1.15,2013-03-02 01:55:00,
2013-03-01 20:05:00,24.7,14.2,30.30,WSW,239,0.0,0.0,64,0.00,,,0.00,Wunderground v.1.15,2013-03-02 02:05:00,
2013-03-01 20:15:00,24.4,14.0,30.30,SW,221,0.0,0.0,64,0.00,,,0.00,Wunderground v.1.15,2013-03-02 02:15:00,
2013-03-01 20:25:00,24.1,13.7,30.30,West,278,0.0,0.0,64,0.00,,,0.00,Wunderground v.1.15,2013-03-02 02:25:00,
2013-03-01 20:30:00,23.8,13.7,30.30,West,264,0.0,0.0,65,0.00,,,0.00,Wunderground v.1.15,2013-03-02 02:30:00,
2013-03-01 20:35:00,23.6,13.5,30.30,West,264,0.0,0.0,65,0.00,,,0.00,Wunderground v.1.15,2013-03-02 02:35:00,
2013-03-01 20:45:00,23.3,13.3,30.29,West,259,0.0,0.0,65,0.00,,,0.00,Wunderground v.1.15,2013-03-02 02:45:00,
2013-03-01 20:50:00,23.2,13.2,30.29,West,263,0.0,0.0,65,0.00,,,0.00,Wunderground v.1.15,2013-03-02 02:50:00,
2013-03-01 20:55:00,23.0,13.3,30.29,WSW,248,0.0,0.0,66,0.00,,,0.00,Wunderground v.1.15,2013-03-02 02:55:00,
2013-03-01 21:05:00,22.5,12.8,30.29,SW,226,0.0,0.0,66,0.00,,,0.00,Wunderground v.1.15,2013-03-02 03:05:00,
2013-03-01 21:15:00,22.4,12.8,30.30,WSW,238,0.0,0.0,66,0.00,,,0.00,Wunderground v.1.15,2013-03-02 03:15:00,
2013-03-01 21:20:00,22.2,12.6,30.30,West,262,0.0,0.0,66,0.00,,,0.00,Wunderground v.1.15,2013-03-02 03:20:00,
2013-03-01 21:25:00,22.1,12.5,30.30,West,259,0.0,0.0,66,0.00,,,0.00,Wunderground v.1.15,2013-03-02 03:25:00,
2013-03-01 21:30:00,21.9,12.3,30.30,West,259,0.0,0.0,66,0.00,,,0.00,Wunderground v.1.15,2013-03-02 03:30:00,
2013-03-01 21:40:00,21.6,12.0,30.30,West,259,0.0,0.0,66,0.00,,,0.00,Wunderground v.1.15,2013-03-02 03:40:00,
2013-03-01 21:45:00,21.6,12.0,30.31,West,259,0.0,0.0,66,0.00,,,0.00,Wunderground v.1.15,2013-03-02 03:45:00,
2013-03-01 21:50:00,21.4,11.8,30.31,SW,215,0.0,0.0,66,0.00,,,0.00,Wunderground v.1.15,2013-03-02 03:50:00,
2013-03-01 22:00:00,21.1,11.5,30.31,SE,141,0.0,0.0,66,0.00,,,0.00,Wunderground v.1.15,2013-03-02 04:00:00,
2013-03-01 22:05:00,21.1,11.8,30.31,SE,141,0.0,0.0,67,0.00,,,0.00,Wunderground v.1.15,2013-03-02 04:05:00,
2013-03-01 22:15:00,20.8,11.6,30.31,SE,143,0.0,0.0,67,0.00,,,0.00,Wunderground v.1.15,2013-03-02 04:15:00,
2013-03-01 22:20:00,20.6,11.4,30.31,SE,143,0.0,0.0,67,0.00,,,0.00,Wunderground v.1.15,2013-03-02 04:20:00,
2013-03-01 22:25:00,20.5,11.3,30.31,East,98,0.0,0.0,67,0.00,,,0.00,Wunderground v.1.15,2013-03-02 04:25:00,
2013-03-01 22:30:00,20.3,11.1,30.31,East,98,0.0,0.0,67,0.00,,,0.00,Wunderground v.1.15,2013-03-02 04:30:00,
2013-03-01 22:40:00,20.2,11.0,30.31,South,190,0.0,0.0,67,0.00,,,0.00,Wunderground v.1.15,2013-03-02 04:40:00,
2013-03-01 22:45:00,20.0,11.1,30.31,WNW,290,0.0,0.0,68,0.00,,,0.00,Wunderground v.1.15,2013-03-02 04:45:00,
2013-03-01 22:50:00,19.9,11.0,30.31,SW,231,0.0,0.0,68,0.00,,,0.00,Wunderground v.1.15,2013-03-02 04:50:00,
2013-03-01 22:55:00,19.9,11.0,30.31,ENE,65,0.0,0.0,68,0.00,,,0.00,Wunderground v.1.15,2013-03-02 04:55:00,
2013-03-01 23:00:00,19.7,10.8,30.30,South,187,0.0,0.0,68,0.00,,,0.00,Wunderground v.1.15,2013-03-02 05:00:00,
2013-03-01 23:05:00,19.7,10.8,30.30,SW,231,0.0,0.0,68,0.00,,,0.00,Wunderground v.1.15,2013-03-02 05:05:00,
2013-03-01 23:15:00,19.4,10.6,30.30,SW,231,0.0,0.0,68,0.00,,,0.00,Wunderground v.1.15,2013-03-02 05:15:00,
2013-03-01 23:25:00,19.2,10.4,30.30,SW,225,0.0,0.0,68,0.00,,,0.00,Wunderground v.1.15,2013-03-02 05:25:00,
2013-03-01 23:30:00,19.1,10.6,30.30,SW,225,0.0,0.0,69,0.00,,,0.00,Wunderground v.1.15,2013-03-02 05:30:00,
2013-03-01 23:35:00,18.9,10.4,30.30,SSW,212,0.0,0.0,69,0.00,,,0.00,Wunderground v.1.15,2013-03-02 05:35:00,
2013-03-01 23:40:00,18.9,10.4,30.30,South,172,0.0,0.0,69,0.00,,,0.00,Wunderground v.1.15,2013-03-02 05:40:00,
2013-03-01 23:45:00,18.8,10.3,30.30,East,96,0.0,0.0,69,0.00,,,0.00,Wunderground v.1.15,2013-03-02 05:45:00,
2013-03-01 23:50:00,18.8,10.3,30.30,SW,216,0.0,0.0,69,0.00,,,0.00,Wunderground v.1.15,2013-03-02 05:50:00,
2013-03-01 23:55:00,18.6,10.1,30.30,West,281,0.0,0.0,69,0.00,,,0.00,Wunderground v.1.15,2013-03-02 05:55:00,